STARLINK-1262, 45366

Orbit data source: Space-Track

STARLINK-1262, 45366 is a payload satellite owned by SpaceX/Seattle (US) in LEO that was launched on Wed, 18 Mar 2020 UTC via an FALCON 9 launch vehicle from the Air Force Eastern Test Range (AFETR). Payload-class satellites include a variety of spacecraft equipped with specific instruments for various scientific and technological missions. These include communications satellites like Starlink; space stations such as the ISS; scientific satellites like the Hubble; Earth observation satellites from companies like Planet Labs, Umbra, and HawkEye 360; GPS; miniature CubeSats for education and research; and military/defense satellites.

Loading next visibility...
Identifier
45366, 2020-019G
Orbit
LEO
Country
Flag of USUS
Related business
Manufacturer
SpaceX/Seattle
Mission
Operational Commercial Communications
Bus & Motor
STARLINK, Unknown motor
Mass
260 kg wet, ~248 kg dry
Launch date (UTC)
2020-03-18 (5 years ago)
Launch vehicle
FALCON 9
Launch site
Air Force Eastern Test Range (AFETR)
Object type
Payload
Rocket body
Debris
Shape & HBR
Box + 1 Pan, 4.4 m
Radar Cross Section
13.562 m², Large (>1 m²)

Expand to show TLE details & history
Last TLE update: 1 day ago

TLE from 1 day ago
0 STARLINK-1262
1 45366U 20019G   25257.34197515  .00001234  00000-0  10180-3 0  9995
2 45366  53.0514 238.2705 0001572  91.7260 268.3909 15.06370518303156
Epoch: 2025-09-14T08:12Z
TLE epoch observation values (Epoch: 2025-09-14T08:12:26.652Z)
Latitude
-0.00005°
Longitude
121.59705°
Altitude
548.211 km
Speed
7.589 km/s
True Right ascension
15h 53m 04s
True Declination
0° 00' 00"
Sunlit
Object was in daylight at epoch
Visualization orbit readout
Latitude
Unknown
Longitude
Unknown
Altitude
Unknown
Speed
Unknown
Apparent Right ascension
Unknown
Apparent Declination
Unknown
Sunlit
N/A
Visualization observer readout
Local Sidereal Time
05:12:54
Azimuth
Unknown
Elevation
Unknown
Doppler factor
Unknown
Orbital elements
Apogee altitude
548.662 km
Perigee altitude
546.484 km
Semi-major axis
6,925.71 km
Eccentricity
0.00016
Inclination
53.0514°
RAAN
238.2705°
Arg. of periapsis
91.726°
True anomaly
268.37289°
Mean anomaly
268.3909°
Eccentric anomaly
268.3819°
Mean motion
3.76571 °/min
Orbital period
95.6 mins
BSTAR
0.0001018
Loading maneuver chart data...
Computing Atmospheric mass density...
Loading historical data...
Loading historical data...
Loading historical data...
Loading historical data...
Loading historical data...
Loading historical data...
Loading historical data...

Documentation

Showing up to 5 results
|